Monterey, CA

2:33 PM PST on January 19, 2018 (GMT -0800)
Monterey Peninsula

Weather History for KMRY - October, 2010

Change the Weather History Date:

Sunday, October 17, 2010

  Actual Average Record
Temperature  
Mean Temperature 56 °F 59 °F  
Max Temperature 58 °F 67 °F 82 °F (2008)
Min Temperature 54 °F 50 °F 46 °F (1998)
Degree Days  
Heating Degree Days 9    
Month to date heating degree days 92  
Since 1 July heating degree days 573  
Cooling Degree Days 0    
Month to date cooling degree days 4  
Year to date cooling degree days 30  
Growing Degree Days 5 (Base 50)    
Moisture  
Dew Point 49 °F    
Average Humidity 80    
Maximum Humidity 83    
Minimum Humidity 77    
Precipitation  
Precipitation 0.25 in - 0.68 in (2004)
Month to date precipitation 0.25  
Year to date precipitation 16.69  
Since 1 July precipitation 0.36  
Sea Level Pressure  
Sea Level Pressure 30.11 in    
Wind  
Wind Speed 6 mph (SW)    
Max Wind Speed 13 mph    
Max Gust Speed 17 mph    
Visibility 10 miles    
Events Rain    
T = Trace of Precipitation, MM = Missing Value Source: NWS Daily Summary

Daily Weather History Graph

Daily Weather History Graph

Search for Another Location

Airport or City:

Trip Planner

Search our weather history database for the weather conditions in past years. The results will help you decide how hot, cold, wet, or windy it might be!

Date:

Astronomy

Oct. 17, 2010 Rise Set
Actual Time 7:16 AM PDT 6:28 PM PDT
Civil Twilight 6:50 AM PDT 6:54 PM PDT
Nautical Twilight 6:20 AM PDT 7:24 PM PDT
Astronomical Twilight 5:50 AM PDT 7:54 PM PDT
Moon 3:43 PM PDT (10/17) 2:21 AM PDT (10/17)
Length of Visible Light 12h 03m
Length of Day
11h 11m
Waxing Gibbous, 76% of the Moon is Illuminated
Oct 17
Waxing Gibbous
Oct 22
Full
Oct 30
Last Quarter
Nov 5
New
Nov 13
First Quarter

Hourly Weather History & Observations

Time (PDT) Temp. Dew Point Humidity Pressure Visibility Wind Dir Wind Speed Gust Speed Precip Events Conditions
12:25 AM 55.4 °F 50.0 °F 82% 30.06 in 10.0 mi SW 9.2 mph - N/A   Scattered Clouds
12:34 AM 55.4 °F 50.0 °F 82% 30.07 in 10.0 mi SSW 6.9 mph - N/A   Mostly Cloudy
12:54 AM 55.9 °F 50.0 °F 80% 30.09 in 10.0 mi SW 6.9 mph - N/A   Overcast
1:54 AM 55.9 °F 48.9 °F 77% 30.10 in 10.0 mi WSW 8.1 mph - N/A   Overcast
2:39 AM 55.4 °F 48.2 °F 77% 30.06 in 10.0 mi SW 5.8 mph - N/A   Overcast
2:54 AM 55.0 °F 48.9 °F 80% 30.10 in 10.0 mi WSW 6.9 mph - N/A   Overcast
3:54 AM 55.0 °F 48.9 °F 80% 30.10 in 10.0 mi WSW 4.6 mph - N/A   Overcast
4:54 AM 55.0 °F 48.0 °F 77% 30.11 in 10.0 mi SW 8.1 mph - N/A   Overcast
5:22 AM 55.4 °F 48.2 °F 77% 30.07 in 10.0 mi SW 8.1 mph - N/A   Overcast
5:54 AM 55.0 °F 48.0 °F 77% 30.12 in 10.0 mi SW 4.6 mph - N/A   Overcast
6:14 AM 55.4 °F 48.2 °F 77% 30.09 in 10.0 mi SSW 4.6 mph - N/A   Overcast
6:54 AM 55.9 °F 48.9 °F 77% 30.13 in 10.0 mi SW 5.8 mph - N/A   Overcast
7:51 AM 55.4 °F 48.2 °F 77% 30.10 in 10.0 mi SW 5.8 mph - N/A   Overcast
7:54 AM 55.9 °F 48.9 °F 77% 30.14 in 10.0 mi SW 4.6 mph - N/A   Overcast
8:54 AM 55.9 °F 48.9 °F 77% 30.15 in 10.0 mi WSW 3.5 mph - 0.00 in Rain Light Rain
9:54 AM 55.9 °F 50.0 °F 80% 30.16 in 10.0 mi West 4.6 mph - 0.00 in   Mostly Cloudy
10:33 AM 55.4 °F 48.2 °F 77% 30.13 in 10.0 mi West 5.8 mph - N/A   Overcast
10:54 AM 55.9 °F 48.9 °F 77% 30.18 in 10.0 mi West 8.1 mph - N/A   Overcast
11:04 AM 55.4 °F 48.2 °F 77% 30.14 in 10.0 mi WSW 6.9 mph - N/A   Overcast
11:54 AM 55.0 °F 50.0 °F 83% 30.19 in 5.0 mi SSE 3.5 mph - 0.04 in Rain Rain
12:54 PM 55.0 °F 50.0 °F 83% 30.15 in 5.0 mi ESE 5.8 mph - 0.19 in Rain Light Rain
1:01 PM 55.4 °F 50.0 °F 82% 30.11 in 10.0 mi East 4.6 mph - N/A Rain Light Rain
1:29 PM 55.4 °F 50.0 °F 82% 30.09 in 8.0 mi Calm Calm - 0.01 in Rain Light Rain
1:54 PM 55.0 °F 50.0 °F 83% 30.11 in 10.0 mi ENE 8.1 mph - 0.01 in   Overcast
2:54 PM 55.9 °F 50.0 °F 80% 30.10 in 10.0 mi West 6.9 mph - 0.00 in   Overcast
3:54 PM 55.9 °F 50.0 °F 80% 30.09 in 10.0 mi WNW 4.6 mph - 0.00 in Rain Light Rain
4:11 PM 55.4 °F 50.0 °F 82% 30.06 in 10.0 mi WNW 4.6 mph - 0.00 in Rain Light Rain
4:54 PM 55.9 °F 50.0 °F 80% 30.10 in 10.0 mi West 10.4 mph - 0.01 in   Overcast
5:23 PM 55.4 °F 50.0 °F 82% 30.07 in 10.0 mi West 8.1 mph - N/A   Overcast
5:54 PM 55.0 °F 48.9 °F 80% 30.11 in 10.0 mi West 9.2 mph - N/A   Overcast
6:54 PM 55.0 °F 48.9 °F 80% 30.11 in 10.0 mi SW 5.8 mph - N/A   Overcast
7:01 PM 55.4 °F 48.2 °F 77% 30.07 in 10.0 mi WSW 5.8 mph - N/A   Overcast
7:22 PM 55.4 °F 48.2 °F 77% 30.08 in 10.0 mi WSW 8.1 mph - N/A   Overcast
7:54 PM 55.0 °F 48.0 °F 77% 30.12 in 10.0 mi SW 8.1 mph - N/A   Overcast
8:54 PM 55.0 °F 48.0 °F 77% 30.12 in 10.0 mi South 4.6 mph - N/A   Overcast
9:54 PM 55.0 °F 48.0 °F 77% 30.12 in 10.0 mi Calm Calm - N/A   Overcast
10:54 PM 55.0 °F 48.0 °F 77% 30.13 in 10.0 mi South 3.5 mph - N/A   Overcast
11:54 PM 55.0 °F 48.9 °F 80% 30.12 in 10.0 mi Calm Calm - N/A   Overcast